Location: Unspecified
(0.0000°N, 0.0000°E)
Time: 02:20:17
(UTC+00:00)

SR - Pass Details

Date: 05 October 2020
Orbit: 581 x 874 km, 66.7° (Epoch: 25 October)

Event Time Altitude Azimuth Distance (km) Brightness Sun altitude
Rises 18:26:47 0° 331° (NNW) 3,221 ? -9.6°
Reaches altitude 10° 18:29:09 10° 326° (NNW) 2,340 ? -10.2°
Maximum altitude 18:34:25 54° 250° (WSW) 998 ? -11.5°
Drops below altitude 10° 18:40:04 10° 173° (S) 2,492 ? -12.9°
Sets 18:42:39 0° 169° (S) 3,449 ? -13.6°
